EW7951 Weather Reports


time (UTC)temp
F
wind
direction
speed
knots
gust
knots
rain 1hr
in
rain 24hr
in
rain mn
in
humidity
%
barometer
mb
20260506145104 55 327 2.6 6.1 0.00 0.12 0.09 70 1009.5
20260506144604 54 326 0.9 4.3 0.00 0.12 0.09 70 1009.6
20260506144104 55 339 2.6 5.2 0.00 0.12 0.09 70 1009.6
20260506143603 55 330 2.6 7.0 0.00 0.13 0.09 69 1009.6
20260506143104 55 342 1.7 6.1 0.00 0.13 0.09 68 1009.6
20260506142603 55 340 0.9 2.6 0.00 0.13 0.09 67 1009.5
20260506142104 55 323 1.7 5.2 0.00 0.13 0.09 66 1009.5
20260506141604 55 346 1.7 7.8 0.00 0.13 0.09 67 1009.5
20260506141104 56 350 5.2 10.4 0.00 0.13 0.09 67 1009.5
20260506140103 57 348 3.5 10.4 0.00 0.15 0.09 66 1009.5
20260506135603 57 322 1.7 8.7 0.00 0.16 0.09 66 1009.5
20260506134604 57 310 1.7 4.3 0.00 0.17 0.09 65 1009.6
20260506134104 58 316 0.9 5.2 0.00 0.17 0.09 65 1009.6
20260506133603 57 331 1.7 6.1 0.00 0.17 0.09 67 1009.5
20260506133104 57 305 0.9 4.3 0.00 0.17 0.09 68 1009.5
20260506132604 56 342 1.7 6.1 0.00 0.17 0.09 68 1009.5
20260506132104 56 322 2.6 5.2 0.00 0.17 0.09 67 1009.6
20260506131604 56 315 0.9 5.2 0.00 0.17 0.09 67 1009.5
20260506130603 57 331 2.6 7.8 0.00 0.17 0.09 65 1009.4
20260506130105 58 333 0.9 4.3 0.00 0.17 0.09 62 1009.2
20260506125604 58 324 0.9 4.3 0.00 0.17 0.09 64 1009.2
20260506125104 57 319 2.6 6.1 0.00 0.17 0.09 66 1009.2
20260506124604 56 343 0.9 6.1 0.00 0.17 0.09 67 1009.2
20260506124104 56 352 2.6 8.7 0.00 0.17 0.09 66 1009.2
20260506123604 57 6 4.3 8.7 0.00 0.17 0.09 65 1009.1
20260506123105 58 340 2.6 6.1 0.00 0.17 0.09 63 1009.0
20260506122604 58 355 4.3 10.4 0.00 0.17 0.09 62 1009.0
20260506122105 57 320 0.9 5.2 0.00 0.17 0.09 65 1009.0
20260506121604 57 351 5.2 10.4 0.00 0.17 0.09 65 1009.1
20260506120604 57 2 1.7 5.2 0.00 0.17 0.09 66 1009.0
20260506120104 57 356 3.5 10.4 0.00 0.17 0.09 67 1009.1
20260506115604 57 317 2.6 7.0 0.00 0.17 0.09 65 1009.1
20260506114103 57 348 4.3 10.4 0.00 0.17 0.09 67 1009.1
20260506113104 56 346 5.2 12.2 0.00 0.17 0.09 68 1009.2
20260506112604 56 342 2.6 7.8 0.00 0.17 0.09 69 1009.2
20260506112105 56 343 6.1 12.2 0.00 0.17 0.09 69 1009.1
20260506111605 56 353 4.3 7.0 0.00 0.17 0.09 70 1009.1
20260506110605 56 337 4.3 10.4 0.00 0.17 0.09 69 1009.1
20260506105604 55 347 2.6 10.4 0.00 0.17 0.09 72 1009.0
20260506105103 55 329 2.6 7.8 0.00 0.17 0.09 72 1009.0
20260506104604 55 314 2.6 12.2 0.00 0.17 0.09 73 1009.0
20260506104104 55 352 2.6 7.8 0.00 0.17 0.09 73 1008.9
20260506103604 55 335 1.7 7.0 0.00 0.17 0.09 75 1009.0
20260506103105 55 350 3.5 7.0 0.00 0.17 0.09 74 1009.1
20260506102604 55 342 2.6 10.4 0.00 0.17 0.09 74 1009.0
20260506101604 54 338 4.3 11.3 0.00 0.17 0.09 75 1008.9
20260506101103 55 314 2.6 6.1 0.00 0.17 0.09 77 1008.8
20260506100104 54 339 2.6 10.4 0.00 0.17 0.09 78 1008.7
20260506095604 53 329 3.5 10.4 0.00 0.17 0.09 77 1008.7
20260506095104 53 342 4.3 7.0 0.00 0.17 0.09 79 1008.5
20260506094603 53 356 3.5 6.1 0.00 0.17 0.09 78 1008.6
20260506094104 53 341 6.1 11.3 0.00 0.17 0.09 78 1008.7
20260506093104 52 356 3.5 8.7 0.00 0.17 0.09 79 1008.7
20260506092104 52 338 5.2 13.0 0.00 0.17 0.09 80 1008.8
20260506091104 52 9 2.6 7.0 0.00 0.17 0.09 82 1008.7
20260506090604 52 20 1.7 6.1 0.00 0.17 0.09 82 1008.6
20260506090104 52 1 3.5 8.7 0.00 0.17 0.09 82 1008.6
20260506085604 52 16 2.6 8.7 0.00 0.17 0.09 82 1008.6
20260506085104 52 336 4.3 10.4 0.00 0.17 0.09 81 1008.5
20260506084604 51 358 5.2 7.0 0.00 0.17 0.09 83 1008.5
20260506084104 51 4 4.3 7.8 0.00 0.17 0.09 83 1008.5
20260506083604 51 354 2.6 6.1 0.00 0.17 0.09 84 1008.6
20260506083103 51 41 0.9 6.1 0.00 0.17 0.09 85 1008.5
20260506082603 51 16 3.5 6.1 0.00 0.17 0.09 84 1008.6
20260506082104 51 18 2.6 7.0 0.00 0.17 0.09 84 1008.5
20260506081603 51 19 2.6 7.0 0.00 0.17 0.09 84 1008.6
20260506081104 51 1 1.7 5.2 0.00 0.17 0.09 86 1008.5
20260506080603 50 358 4.3 8.7 0.00 0.17 0.09 85 1008.5
20260506080104 50 355 1.7 7.8 0.00 0.18 0.09 87 1008.4
20260506073105 49 353 7.0 12.2 0.00 0.18 0.09 88 1008.0
20260506072604 49 3 4.3 7.8 0.00 0.18 0.09 89 1007.9
20260506072104 49 353 2.6 7.0 0.00 0.18 0.09 90 1007.8
20260506071604 49 0 4.3 10.4 0.00 0.18 0.09 90 1007.8
20260506071104 49 347 1.7 7.8 0.00 0.18 0.09 90 1007.9
20260506070603 49 7 2.6 7.0 0.00 0.18 0.09 90 1007.8
20260506070103 49 351 2.6 6.1 0.00 0.18 0.09 90 1007.7
20260506062104 49 342 3.5 7.0 0.00 0.18 0.09 90 1007.4
20260506061604 49 342 1.7 7.8 0.00 0.18 0.09 91 1007.3
20260506060604 49 343 2.6 7.0 0.00 0.18 0.09 91 1007.2
20260506060104 49 352 2.6 7.0 0.00 0.18 0.09 91 1007.1
20260506051103 49 353 1.7 8.7 0.00 0.18 0.09 92 1006.6
20260506050104 49 1 4.3 10.4 0.01 0.18 0.09 92 1006.6
20260506045103 49 332 2.6 7.0 0.01 0.18 0.09 92 1006.5
20260506044104 49 357 2.6 6.1 0.01 0.18 0.09 92 1006.3
20260506043605 49 348 2.6 7.8 0.01 0.18 0.09 92 1006.4
20260506043104 49 344 2.6 11.3 0.01 0.18 0.09 93 1006.4
20260506042604 49 346 2.6 7.0 0.01 0.18 0.09 93 1006.4
20260506042104 49 339 2.6 7.0 0.01 0.18 0.09 93 1006.5
20260506041604 50 348 2.6 7.8 0.01 0.18 0.09 92 1006.5
20260506041103 50 344 1.7 5.2 0.01 0.18 0.09 93 1006.3
20260506040604 50 354 2.6 6.1 0.00 0.17 0.08 93 1006.4
20260506040104 50 341 2.6 7.8 0.01 0.17 0.08 93 1006.3
20260506035605 50 348 1.7 7.8 0.01 0.17 0.08 93 1006.3
20260506035104 50 358 3.5 7.0 0.01 0.17 0.08 93 1006.3
20260506034104 50 339 0.9 6.1 0.01 0.17 0.08 93 1006.3
20260506032603 50 352 0.9 4.3 0.02 0.17 0.08 93 1006.3
20260506032105 51 0 0.9 2.6 0.02 0.17 0.08 93 1006.3
20260506031605 51 357 1.7 2.6 0.02 0.17 0.08 93 1006.3
20260506031105 51 356 0.0 2.6 0.02 0.17 0.08 93 1006.3
20260506030605 50 358 0.0 2.6 0.02 0.17 0.08 93 1006.4
20260506030104 50 358 0.9 2.6 0.02 0.17 0.07 93 1006.4
20260506025604 50 0 0.9 5.2 0.02 0.17 0.07 93 1006.4
20260506025104 50 358 2.6 11.3 0.02 0.17 0.07 93 1006.5
20260506024103 50 0 4.3 7.8 0.03 0.17 0.07 93 1006.4
20260506023604 50 352 1.7 7.0 0.03 0.17 0.07 93 1006.5
20260506023104 51 350 3.5 7.8 0.02 0.16 0.06 93 1006.5
20260506022604 50 1 2.6 4.3 0.02 0.16 0.06 93 1006.5
20260506022104 50 353 1.7 6.1 0.02 0.16 0.06 93 1006.5
20260506020604 51 349 2.6 7.8 0.02 0.15 0.06 93 1006.5
20260506015605 51 348 0.9 6.1 0.02 0.14 0.05 93 1006.5
20260506015104 51 9 1.7 5.2 0.02 0.14 0.05 93 1006.4
20260506014604 51 354 1.7 4.3 0.02 0.14 0.05 93 1006.5
20260506014104 51 344 0.9 4.3 0.02 0.13 0.04 93 1006.5
20260506013105 51 357 1.7 4.3 0.02 0.13 0.04 93 1006.3
20260506012605 51 7 1.7 6.1 0.02 0.13 0.04 93 1006.3
20260506012104 51 0 5.2 8.7 0.02 0.13 0.04 93 1006.2
20260506011604 51 355 2.6 10.4 0.02 0.13 0.04 93 1006.4
20260506011104 51 345 3.5 7.8 0.02 0.13 0.04 93 1006.4
20260506010604 51 356 2.6 7.0 0.02 0.13 0.04 93 1006.2
20260506005604 51 349 2.6 6.1 0.01 0.13 0.03 93 1006.3
20260506005104 51 21 1.7 2.6 0.01 0.13 0.03 93 1006.3
20260506004104 52 22 1.7 6.1 0.00 0.12 0.02 92 1006.4
20260506003605 52 18 2.6 8.7 0.01 0.12 0.02 92 1006.3
20260506003104 52 348 2.6 12.2 0.01 0.12 0.02 92 1006.3
20260506002605 52 348 2.6 10.4 0.01 0.12 0.02 92 1006.4
20260506002104 52 351 1.7 7.0 0.02 0.12 0.02 92 1006.3
20260506001605 52 356 2.6 6.1 0.02 0.12 0.02 92 1006.4
20260506001104 52 356 1.7 5.2 0.02 0.12 0.02 92 1006.4
20260506000605 52 6 3.5 7.0 0.02 0.12 0.02 92 1006.4
20260506000104 52 349 2.6 7.0 0.02 0.12 0.02 92 1006.3
20260505235605 52 341 1.7 6.1 0.02 0.12 0.02 92 1006.4
20260505235104 52 351 1.7 4.3 0.02 0.12 0.02 92 1006.4
20260505233604 52 348 1.7 4.3 0.02 0.11 0.02 92 1006.5
20260505233106 53 348 0.9 2.6 0.02 0.11 0.02 93 1006.4
20260505232604 53 350 0.0 2.6 0.02 0.11 0.02 92 1006.5
20260505231604 53 348 0.0 2.6 0.01 0.10 0.01 92 1006.5
20260505231103 53 348 1.7 5.2 0.01 0.10 0.01 92 1006.5
20260505230604 53 350 0.0 2.6 0.01 0.10 0.01 92 1006.5
20260505230104 53 350 1.7 4.3 0.01 0.10 0.01 92 1006.6
20260505225104 53 348 1.7 5.2 0.01 0.10 0.01 92 1006.6
20260505224603 53 352 1.7 5.2 0.01 0.10 0.01 92 1006.6
20260505224104 53 352 0.9 4.3 0.01 0.10 0.01 92 1006.6
20260505223604 53 0 1.7 5.2 0.00 0.09 0.00 92 1006.5
20260505223105 53 7 0.9 5.2 0.00 0.09 0.00 92 1006.5
20260505222604 53 338 0.0 2.6 0.00 0.09 0.00 92 1006.3
20260505222104 53 340 3.5 7.0 0.00 0.09 0.00 92 1006.3
20260505221604 53 350 0.9 6.1 0.00 0.09 0.00 92 1006.4
20260505221105 53 347 0.0 4.3 0.00 0.09 0.00 92 1006.4
20260505220605 53 350 0.9 2.6 0.00 0.09 0.00 92 1006.3
20260505220105 53 351 0.9 5.2 0.00 0.09 0.00 92 1006.3
20260505215604 53 356 2.6 5.2 0.00 0.09 0.09 92 1006.4
20260505215104 53 357 0.9 7.0 0.00 0.09 0.09 92 1006.4
20260505214104 53 345 3.5 5.2 0.00 0.09 0.09 92 1006.4
20260505213603 53 348 2.6 5.2 0.00 0.09 0.09 92 1006.5
20260505213104 53 346 3.5 5.2 0.00 0.09 0.09 92 1006.5
20260505212603 53 345 0.9 5.2 0.00 0.09 0.09 92 1006.5
20260505212104 53 348 1.7 4.3 0.00 0.09 0.09 92 1006.6
20260505211604 53 349 2.6 5.2 0.00 0.09 0.09 92 1006.6
20260505211103 53 352 0.9 5.2 0.00 0.09 0.09 92 1006.6
20260505210603 53 353 0.9 4.3 0.00 0.09 0.09 92 1006.6
20260505210103 53 348 1.7 4.3 0.00 0.09 0.09 92 1006.6
20260505205604 53 345 0.9 6.1 0.00 0.09 0.09 92 1006.6
20260505205103 53 346 1.7 5.2 0.00 0.09 0.09 92 1006.6
20260505204104 53 354 2.6 5.2 0.01 0.09 0.09 92 1006.6
20260505203604 53 353 2.6 5.2 0.01 0.09 0.09 92 1006.6
20260505203103 53 339 1.7 7.0 0.01 0.09 0.09 92 1006.6
20260505202605 53 352 0.9 4.3 0.01 0.09 0.09 92 1006.6
20260505202103 53 351 0.9 6.1 0.01 0.09 0.09 92 1006.6
20260505201603 53 350 2.6 5.2 0.01 0.09 0.09 92 1006.5
20260505201104 53 356 1.7 6.1 0.01 0.09 0.09 92 1006.5
20260505200603 53 2 0.9 2.6 0.01 0.09 0.09 92 1006.5
20260505200104 53 2 0.9 2.6 0.01 0.09 0.09 92 1006.4
20260505195604 53 6 0.9 4.3 0.01 0.09 0.09 92 1006.4
20260505194603 54 354 2.6 5.2 0.00 0.09 0.09 92 1006.4
20260505194103 54 355 1.7 4.3 0.00 0.09 0.09 92 1006.3
20260505193604 54 0 0.9 4.3 0.00 0.09 0.09 92 1006.4
20260505193103 54 1 2.6 4.3 0.00 0.09 0.09 92 1006.3
20260505192604 54 6 0.0 2.6 0.00 0.09 0.09 92 1006.1
20260505192103 54 12 1.7 5.2 0.00 0.09 0.09 92 1006.0
20260505191603 54 23 2.6 7.8 0.00 0.09 0.09 92 1006.0
20260505191104 54 5 2.6 6.1 0.00 0.09 0.09 92 1006.0
20260505190603 54 3 3.5 5.2 0.00 0.09 0.09 92 1006.0
20260505185603 54 0 1.7 6.1 0.00 0.09 0.09 92 1006.0
20260505185103 54 3 1.7 6.1 0.00 0.09 0.09 92 1006.0
20260505184603 54 12 0.9 4.3 0.01 0.09 0.09 92 1005.9
20260505184103 54 21 0.9 6.1 0.01 0.09 0.09 92 1005.9
20260505183604 54 3 1.7 6.1 0.01 0.09 0.09 91 1005.8
20260505183103 54 12 2.6 7.0 0.01 0.09 0.09 91 1005.9
20260505182604 54 18 0.9 4.3 0.01 0.09 0.09 91 1005.8
20260505182104 54 12 1.7 5.2 0.01 0.09 0.09 91 1005.9
20260505181604 54 8 2.6 6.1 0.01 0.09 0.09 91 1005.9
20260505181103 54 6 2.6 7.0 0.01 0.09 0.09 91 1005.8
20260505180603 54 14 1.7 5.2 0.01 0.09 0.09 91 1005.9
20260505180103 54 15 3.5 5.2 0.01 0.09 0.09 91 1005.8
20260505175104 55 7 1.7 5.2 0.01 0.09 0.09 91 1005.9
20260505174603 55 17 1.7 7.8 0.00 0.09 0.08 91 1005.9
20260505174103 55 20 2.6 6.1 0.00 0.09 0.08 91 1005.8
20260505173603 55 14 2.6 6.1 0.00 0.09 0.08 91 1005.9
20260505172604 55 1 2.6 7.8 0.00 0.09 0.08 91 1005.9
20260505172103 55 22 1.7 7.8 0.00 0.09 0.08 91 1005.9
20260505171604 55 13 1.7 6.1 0.00 0.09 0.08 91 1005.9
20260505171104 55 8 1.7 5.2 0.00 0.09 0.08 91 1006.0
20260505170603 55 355 4.3 7.8 0.00 0.09 0.08 91 1006.0
20260505170103 55 12 0.0 6.1 0.00 0.09 0.08 92 1006.0
20260505165604 55 10 4.3 8.7 0.00 0.09 0.08 91 1006.0
20260505164603 55 2 1.7 6.1 0.00 0.09 0.08 92 1006.0
20260505163605 55 17 0.9 5.2 0.00 0.09 0.08 92 1006.0
20260505163104 55 9 4.3 8.7 0.00 0.09 0.08 92 1006.1
20260505162604 55 17 0.0 4.3 0.00 0.09 0.08 92 1006.1
20260505161104 55 2 3.5 7.0 0.01 0.09 0.08 91 1006.0
20260505160604 55 6 2.6 7.0 0.02 0.09 0.08 92 1006.0
20260505160103 55 346 3.5 7.8 0.02 0.09 0.08 92 1006.0
20260505153105 55 348 4.3 7.0 0.02 0.09 0.08 91 1005.9
20260505152604 55 357 2.6 10.4 0.02 0.09 0.08 92 1006.0
20260505152104 55 3 3.5 7.8 0.02 0.08 0.07 92 1006.1
20260505151603 55 2 4.3 10.4 0.02 0.08 0.07 92 1006.2
20260505151104 55 354 2.6 7.0 0.02 0.08 0.07 91 1006.1
20260505150604 55 31 1.7 6.1 0.02 0.07 0.06 92 1006.1
20260505150104 55 25 2.6 7.8 0.03 0.07 0.06 91 1006.1